GW1469 Weather Reports


time (UTC)temp
C
wind
direction
speed
KPH
gust
KPH
rain 1hr
cm
rain 24hr
cm
rain mn
cm
humidity
%
barometer
mb
20260504184535 22 109 0.0 1.6 0.00 0.00 0.28 46 1023.3
20260504183943 22 80 4.8 9.7 0.00 0.00 0.28 48 1023.7
20260504183329 22 56 0.0 0.0 0.00 0.00 0.28 46 1023.7
20260504182741 22 116 1.6 3.2 0.00 0.00 0.28 48 1023.7
20260504182142 22 107 0.0 1.6 0.00 0.00 0.28 52 1023.7
20260504181512 21 73 1.6 1.6 0.00 0.00 0.28 51 1023.7
20260504180923 20 73 0.0 1.6 0.00 0.00 0.28 51 1023.7
20260504180320 21 49 3.2 4.8 0.00 0.00 0.28 51 1023.7
20260504175748 20 80 0.0 0.0 0.00 0.00 0.28 52 1023.7
20260504174534 20 117 3.2 3.2 0.00 0.00 0.28 54 1024.0
20260504173931 20 177 3.2 3.2 0.00 0.00 0.28 52 1024.3
20260504172713 20 310 3.2 3.2 0.00 0.00 0.28 54 1024.0
20260504172134 20 49 1.6 1.6 0.00 0.00 0.28 61 1024.3
20260504171554 19 93 3.2 3.2 0.00 0.00 0.28 60 1024.3
20260504170919 20 78 8.0 9.7 0.00 0.00 0.28 60 1024.3
20260504170335 20 146 1.6 1.6 0.00 0.00 0.28 60 1024.7
20260504160347 17 177 3.2 4.8 0.00 0.00 0.28 73 1025.3
20260504141236 10 99 0.0 0.0 0.00 0.00 0.28 99 1025.7
20260504140653 10 123 0.0 1.6 0.00 0.00 0.28 98 1026.0
20260504130633 6 92 0.0 0.0 0.00 0.00 0.13 97 1027.7
20260504110627 4 67 0.0 0.0 0.00 0.00 0.00 95 1025.3
20260504081814 5 67 0.0 0.0 0.00 0.00 0.00 91 1025.7
20260504081216 5 67 0.0 0.0 0.00 0.00 0.00 90 1025.7
20260504080626 5 67 0.0 0.0 0.00 0.00 0.00 90 1025.7
20260504045417 5 67 0.0 0.0 0.00 0.00 0.00 86 1026.7
20260504044831 5 67 0.0 0.0 0.00 0.00 0.00 86 1026.7
20260504044221 5 67 0.0 0.0 0.00 0.00 0.00 86 1026.7
20260504043642 5 67 0.0 0.0 0.00 0.00 0.00 85 1026.7
20260504043048 5 67 0.0 0.0 0.00 0.00 0.00 87 1026.4
20260504042431 5 67 0.0 0.0 0.00 0.00 0.00 87 1026.0
20260504041228 5 67 0.0 0.0 0.00 0.00 0.00 86 1026.4
20260504040644 5 67 0.0 0.0 0.00 0.00 0.00 85 1026.4
20260504040029 5 67 0.0 0.0 0.00 0.00 0.00 85 1026.0
20260504035428 5 67 0.0 0.0 0.00 0.00 0.00 84 1026.4
20260504034214 5 67 0.0 0.0 0.00 0.00 0.00 83 1026.0
20260504033612 5 67 0.0 0.0 0.00 0.00 0.00 83 1026.4
20260504033036 5 67 0.0 0.0 0.00 0.00 0.00 83 1026.4
20260504031244 6 67 0.0 0.0 0.00 0.00 0.00 79 1026.0
20260504030018 6 67 0.0 0.0 0.00 0.00 0.00 78 1026.0
20260504025413 6 67 0.0 0.0 0.00 0.00 0.00 76 1026.0
20260504024824 6 67 0.0 0.0 0.00 0.00 0.00 77 1026.0
20260504024220 6 67 0.0 0.0 0.00 0.00 0.00 75 1026.0
20260504023633 6 67 0.0 0.0 0.00 0.00 0.00 75 1026.0
20260504023027 7 67 0.0 0.0 0.00 0.00 0.00 73 1026.0
20260504022437 7 67 0.0 0.0 0.00 0.00 0.00 71 1026.0
20260504021834 7 67 0.0 0.0 0.00 0.00 0.00 72 1025.7
20260504020620 7 67 0.0 0.0 0.00 0.00 0.00 70 1026.0
20260504020020 7 67 0.0 0.0 0.00 0.00 0.00 69 1026.0
20260504015443 7 67 0.0 0.0 0.00 0.00 0.00 67 1025.7
20260504014826 8 67 0.0 0.0 0.00 0.00 0.00 66 1025.7
20260504014244 8 67 0.0 0.0 0.00 0.00 0.00 65 1025.7
20260504013650 8 67 0.0 0.0 0.00 0.00 0.00 63 1025.3
20260504012412 9 67 0.0 0.0 0.00 0.00 0.00 60 1025.7
20260504011837 9 67 0.0 0.0 0.00 0.00 0.00 60 1025.3
20260504011214 9 67 0.0 0.0 0.00 0.00 0.00 60 1025.3
20260504010635 10 67 0.0 0.0 0.00 0.00 0.00 56 1025.7
20260504010049 10 67 0.0 0.0 0.00 0.00 0.00 57 1025.3
20260504005438 10 67 0.0 0.0 0.00 0.00 0.00 56 1025.3
20260504004247 11 67 0.0 0.0 0.00 0.00 0.00 52 1025.3
20260504003614 11 67 0.0 0.0 0.00 0.00 0.00 50 1025.0
20260504003040 12 67 0.0 0.0 0.00 0.00 0.00 47 1025.3
20260504002436 12 67 0.0 0.0 0.00 0.00 0.00 46 1025.0
20260504001818 13 67 0.0 0.0 0.00 0.00 0.00 48 1025.0
20260504001219 13 67 0.0 0.0 0.00 0.00 0.00 43 1025.0
20260504000654 14 65 0.0 1.6 0.00 0.00 0.00 38 1025.0
20260504000042 14 72 0.0 0.0 0.00 0.00 0.00 37 1025.0
20260503235411 15 73 0.0 0.0 0.00 0.00 0.00 36 1024.7
20260503234815 15 73 0.0 0.0 0.00 0.00 0.00 36 1024.7
20260503234236 15 78 0.0 1.6 0.00 0.00 0.00 35 1024.7
20260503233627 15 69 0.0 0.0 0.00 0.00 0.00 36 1024.7
20260503233035 15 86 0.0 0.0 0.00 0.00 0.00 39 1025.0
20260503232447 15 96 0.0 0.0 0.00 0.00 0.00 38 1025.0
20260503231818 15 67 0.0 0.0 0.00 0.00 0.00 33 1024.7
20260503231252 16 76 0.0 0.0 0.00 0.00 0.00 42 1025.0
20260503230636 16 78 0.0 0.0 0.00 0.00 0.00 33 1025.0
20260503230041 16 70 1.6 3.2 0.00 0.00 0.00 33 1024.7
20260503224223 16 105 0.0 0.0 0.00 0.00 0.00 34 1025.0
20260503223614 17 95 0.0 0.0 0.00 0.00 0.00 33 1025.3
20260503223014 17 66 0.0 0.0 0.00 0.00 0.00 31 1025.3
20260503222422 17 158 3.2 3.2 0.00 0.00 0.00 31 1025.0
20260503221820 17 156 3.2 3.2 0.00 0.00 0.00 30 1025.0
20260503221224 17 136 1.6 1.6 0.00 0.00 0.00 28 1025.3
20260503220654 17 120 1.6 1.6 0.00 0.00 0.00 28 1025.0
20260503220044 18 92 0.0 1.6 0.00 0.00 0.00 28 1025.3
20260503215439 18 81 0.0 1.6 0.00 0.00 0.00 27 1025.3
20260503214810 18 74 0.0 0.0 0.00 0.00 0.00 27 1025.3
20260503214224 18 110 0.0 0.0 0.00 0.00 0.00 27 1025.3
20260503213647 17 159 1.6 1.6 0.00 0.00 0.00 29 1025.3
20260503212440 19 209 4.8 9.7 0.00 0.00 0.00 26 1025.3
20260503211827 18 91 0.0 1.6 0.00 0.00 0.00 24 1025.7
20260503211227 19 109 0.0 0.0 0.00 0.00 0.00 27 1025.7
20260503210647 18 89 0.0 0.0 0.00 0.00 0.00 28 1025.3
20260503210017 18 158 3.2 3.2 0.00 0.00 0.00 25 1025.7
20260503205430 18 150 3.2 4.8 0.00 0.00 0.00 24 1025.7
20260503204242 19 93 0.0 0.0 0.00 0.00 0.00 25 1025.7
20260503203038 18 98 3.2 3.2 0.00 0.00 0.00 26 1026.0
20260503202422 18 130 1.6 3.2 0.00 0.00 0.00 24 1026.0
20260503201816 17 62 3.2 4.8 0.00 0.00 0.00 25 1026.0
20260503201234 17 129 0.0 1.6 0.00 0.00 0.00 25 1026.4
20260503200625 18 282 3.2 4.8 0.00 0.00 0.00 24 1026.4
20260503200026 17 233 6.4 11.3 0.00 0.00 0.00 27 1026.4
20260503195409 18 156 4.8 4.8 0.00 0.00 0.00 26 1026.4
20260503194821 17 50 1.6 3.2 0.00 0.00 0.00 28 1026.7
20260503194241 17 146 4.8 6.4 0.00 0.00 0.00 27 1026.7
20260503193621 17 136 9.7 12.9 0.00 0.00 0.00 26 1027.0
20260503193043 16 106 0.0 1.6 0.00 0.00 0.00 29 1027.4
20260503192436 17 122 1.6 1.6 0.00 0.00 0.00 27 1027.4
20260503191842 17 215 8.0 9.7 0.00 0.00 0.00 29 1027.4
20260503191249 17 70 0.0 1.6 0.00 0.00 0.00 31 1027.4
20260503190636 17 160 3.2 3.2 0.00 0.00 0.00 27 1027.4
20260503190052 16 123 6.4 6.4 0.00 0.00 0.00 32 1027.7
20260503185423 16 99 0.0 0.0 0.00 0.00 0.00 30 1028.1
20260503184846 16 182 6.4 6.4 0.00 0.00 0.00 29 1027.7